UAL850 KSFO-OERK

Flight info

Callsign UAL850
Flight time N/A
Altitude 31000
Route SFO DCT OAK J32 FMG J7 REO/N0499F300 J537 MLP/N0497F310 J540 YQL Q896 MEETO Q959 YVC/N0491F330 J540 YZS DCT 67N073W/M084F330 69N061W 70N047W/M084F350 71N031W 69N016W 67N004W/N0496F350 DCT TEDVU DCT LUTUR DCT ABUNO DCT AGWIM DCT INGIS DCT GELDA/N0484F370 M996 TIRIN DCT SUWGI L32 SOTET/K0883F370 L32 GRD M861 ROMOK M856 RAKUR/N0485F370 UM856 BAG UW75 BAKIR UL601 TUNLA L601 KTN/N0489F390 R785 RASLI P559 GADLI T503 RARSU
Aircraft B77W/H-SDE1E2E3FGHIJ2J3J4J5M1RWXY/LB1D1

Departure

Time 2026-05-05 04:36
Airport San Francisco International Airport (KSFO)

Arrival

Time N/A
Airport King Khalid International Airport (OERK)
Time Latitude Longitude Altitude Speed Heading
2026-05-05 04:09 37.61871 -122.39175 38 ft 0 kts 208°
2026-05-05 04:18 37.61874 -122.39173 38 ft 2 kts 208°
2026-05-05 04:18 37.61888 -122.39163 38 ft 2 kts 208°
2026-05-05 04:19 37.61904 -122.39153 38 ft 2 kts 223°
2026-05-05 04:19 37.61914 -122.39132 38 ft 2 kts 253°
2026-05-05 04:19 37.61916 -122.39106 38 ft 2 kts 281°
2026-05-05 04:19 37.61912 -122.39089 38 ft 1 kts 299°
2026-05-05 04:20 37.61911 -122.39086 38 ft 0 kts 298°
2026-05-05 04:20 37.61911 -122.39087 38 ft 0 kts 298°
2026-05-05 04:22 37.61914 -122.39092 38 ft 2 kts 298°
2026-05-05 04:22 37.61927 -122.39123 38 ft 3 kts 299°
2026-05-05 04:22 37.61938 -122.39148 38 ft 3 kts 297°
2026-05-05 04:22 37.61950 -122.39181 38 ft 4 kts 294°
2026-05-05 04:23 37.61970 -122.39231 38 ft 6 kts 300°
2026-05-05 04:23 37.61989 -122.39274 38 ft 4 kts 300°
2026-05-05 04:23 37.62007 -122.39312 38 ft 4 kts 304°
2026-05-05 04:23 37.62026 -122.39328 38 ft 1 kts 355°
2026-05-05 04:24 37.62039 -122.39324 38 ft 4 kts 16°
2026-05-05 04:24 37.62070 -122.39310 38 ft 4 kts 22°
2026-05-05 04:24 37.62095 -122.39296 38 ft 6 kts 24°
2026-05-05 04:25 37.62202 -122.39228 37 ft 8 kts 28°
2026-05-05 04:25 37.62249 -122.39194 36 ft 7 kts 34°
2026-05-05 04:25 37.62287 -122.39149 35 ft 6 kts 52°
2026-05-05 04:25 37.62308 -122.39101 35 ft 6 kts 67°
2026-05-05 04:26 37.62324 -122.39043 35 ft 7 kts 72°
2026-05-05 04:26 37.62339 -122.38979 34 ft 7 kts 79°
2026-05-05 04:26 37.62334 -122.38917 34 ft 7 kts 112°
2026-05-05 04:26 37.62311 -122.38857 35 ft 7 kts 118°
2026-05-05 04:27 37.62288 -122.38803 35 ft 7 kts 118°
2026-05-05 04:27 37.62263 -122.38742 36 ft 9 kts 118°
2026-05-05 04:27 37.62230 -122.38661 37 ft 11 kts 117°
2026-05-05 04:27 37.62191 -122.38565 37 ft 13 kts 118°
2026-05-05 04:28 37.62152 -122.38470 38 ft 10 kts 117°
2026-05-05 04:28 37.62116 -122.38387 38 ft 11 kts 119°
2026-05-05 04:28 37.62078 -122.38299 38 ft 11 kts 118°
2026-05-05 04:28 37.62037 -122.38203 38 ft 12 kts 117°
2026-05-05 04:29 37.61995 -122.38103 38 ft 11 kts 119°
2026-05-05 04:29 37.61953 -122.38025 38 ft 10 kts 129°
2026-05-05 04:29 37.61897 -122.37953 37 ft 11 kts 138°
2026-05-05 04:29 37.61840 -122.37886 35 ft 10 kts 127°
2026-05-05 04:30 37.61808 -122.37798 34 ft 10 kts 109°
2026-05-05 04:30 37.61783 -122.37711 32 ft 10 kts 112°
2026-05-05 04:30 37.61755 -122.37620 29 ft 11 kts 111°
2026-05-05 04:30 37.61722 -122.37518 26 ft 13 kts 115°
2026-05-05 04:31 37.61677 -122.37409 23 ft 14 kts 118°
2026-05-05 04:31 37.61628 -122.37289 21 ft 14 kts 117°
2026-05-05 04:31 37.61578 -122.37176 20 ft 12 kts 119°
2026-05-05 04:31 37.61532 -122.37066 18 ft 12 kts 118°
2026-05-05 04:32 37.61489 -122.36971 18 ft 10 kts 120°
2026-05-05 04:32 37.61447 -122.36898 18 ft 8 kts 130°
2026-05-05 04:32 37.61404 -122.36839 18 ft 8 kts 133°
2026-05-05 04:32 37.61370 -122.36784 18 ft 6 kts 123°
2026-05-05 04:33 37.61342 -122.36723 18 ft 8 kts 119°
2026-05-05 04:33 37.61303 -122.36631 18 ft 10 kts 118°
2026-05-05 04:33 37.61267 -122.36546 18 ft 9 kts 117°
2026-05-05 04:33 37.61224 -122.36443 16 ft 13 kts 117°
2026-05-05 04:34 37.61169 -122.36311 15 ft 14 kts 118°
2026-05-05 04:34 37.61120 -122.36195 15 ft 12 kts 118°
2026-05-05 04:34 37.61079 -122.36098 15 ft 10 kts 118°
2026-05-05 04:34 37.61053 -122.36003 15 ft 10 kts 92°
2026-05-05 04:35 37.61092 -122.35917 15 ft 9 kts 36°
2026-05-05 04:35 37.61154 -122.35875 15 ft 7 kts 19°
2026-05-05 04:35 37.61200 -122.35892 15 ft 6 kts 310°
2026-05-05 04:35 37.61232 -122.35980 15 ft 30 kts 295°
2026-05-05 04:36 37.61452 -122.36505 18 ft 103 kts 298°
2026-05-05 04:36 37.61898 -122.37562 30 ft 168 kts 297°
2026-05-05 04:36 37.62478 -122.39020 488 ft 192 kts 296°
2026-05-05 04:36 37.63124 -122.40600 1315 ft 191 kts 299°
2026-05-05 04:37 37.63851 -122.42267 1544 ft 211 kts 299°
2026-05-05 04:37 37.64625 -122.44038 1882 ft 227 kts 299°
2026-05-05 04:37 37.65533 -122.46117 2353 ft 243 kts 300°
2026-05-05 04:37 37.66390 -122.48081 2846 ft 255 kts 299°
2026-05-05 04:38 37.67270 -122.50056 3466 ft 260 kts 305°
2026-05-05 04:38 37.68566 -122.51649 4101 ft 262 kts 331°
2026-05-05 04:38 37.70295 -122.52393 4698 ft 266 kts 354°
2026-05-05 04:38 37.72140 -122.52544 5403 ft 267 kts 358°
2026-05-05 04:39 37.74014 -122.52608 6055 ft 270 kts 359°
2026-05-05 04:39 37.75917 -122.52673 6736 ft 271 kts 359°
2026-05-05 04:39 37.77872 -122.52701 7374 ft 274 kts
2026-05-05 04:39 37.79673 -122.52016 7934 ft 276 kts 31°
2026-05-05 04:40 37.81128 -122.50398 8556 ft 278 kts 55°
2026-05-05 04:40 37.82076 -122.48241 9161 ft 280 kts 63°
2026-05-05 04:40 37.82911 -122.45911 9811 ft 282 kts 65°
2026-05-05 04:40 37.83767 -122.43621 10294 ft 288 kts 58°
2026-05-05 04:41 37.85036 -122.41456 10536 ft 303 kts 47°
2026-05-05 04:41 37.86552 -122.39353 10811 ft 319 kts 47°
2026-05-05 04:41 37.88162 -122.37096 11163 ft 334 kts 47°
2026-05-05 04:41 37.89886 -122.34633 11532 ft 349 kts 48°
2026-05-05 04:42 37.91754 -122.31943 11958 ft 364 kts 48°
2026-05-05 04:42 37.93562 -122.29336 12670 ft 368 kts 48°
2026-05-05 04:42 37.95336 -122.26774 13473 ft 369 kts 48°
2026-05-05 04:42 37.97031 -122.24325 14258 ft 369 kts 49°
2026-05-05 04:43 37.98727 -122.21873 14968 ft 371 kts 49°
2026-05-05 04:43 38.00412 -122.19433 15629 ft 374 kts 49°
2026-05-05 04:43 38.02245 -122.16780 16374 ft 375 kts 49°
2026-05-05 04:43 38.03944 -122.14317 17045 ft 377 kts 49°
2026-05-05 04:44 38.05694 -122.11778 17697 ft 379 kts 49°
2026-05-05 04:44 38.07435 -122.09251 18327 ft 381 kts 49°
2026-05-05 04:44 38.09177 -122.06718 18906 ft 384 kts 49°
2026-05-05 04:44 38.10938 -122.04160 19491 ft 387 kts 49°
2026-05-05 04:45 38.12709 -122.01582 20072 ft 390 kts 49°
2026-05-05 04:45 38.14504 -121.98968 20660 ft 392 kts 49°
2026-05-05 04:45 38.16302 -121.96347 21221 ft 394 kts 49°
2026-05-05 04:45 38.18097 -121.93729 21719 ft 397 kts 49°
2026-05-05 04:46 38.19919 -121.91068 22214 ft 401 kts 49°
2026-05-05 04:46 38.21746 -121.88399 22672 ft 404 kts 49°
2026-05-05 04:46 38.23624 -121.85652 23192 ft 407 kts 49°
2026-05-05 04:46 38.25477 -121.82941 23712 ft 409 kts 49°
2026-05-05 04:47 38.27347 -121.80201 24138 ft 412 kts 49°
2026-05-05 04:47 38.29229 -121.77442 24595 ft 415 kts 49°
2026-05-05 04:47 38.31114 -121.74676 25054 ft 418 kts 49°
2026-05-05 04:47 38.33026 -121.71867 25488 ft 421 kts 49°
2026-05-05 04:48 38.34935 -121.69062 25916 ft 424 kts 49°
2026-05-05 04:48 38.36871 -121.66213 26368 ft 426 kts 49°
2026-05-05 04:48 38.38835 -121.63321 26789 ft 429 kts 49°
2026-05-05 04:48 38.40903 -121.60272 27253 ft 432 kts 49°
2026-05-05 04:49 38.42861 -121.57384 27734 ft 433 kts 49°
2026-05-05 04:49 38.44854 -121.54439 28117 ft 436 kts 50°
2026-05-05 04:49 38.46859 -121.51109 28487 ft 440 kts 53°
2026-05-05 04:49 38.48709 -121.47892 28829 ft 444 kts 53°
2026-05-05 04:50 38.50552 -121.44697 29177 ft 447 kts 53°
2026-05-05 04:50 38.52412 -121.41480 29681 ft 447 kts 53°
2026-05-05 04:50 38.54247 -121.38313 30336 ft 443 kts 53°
2026-05-05 04:50 38.56086 -121.35142 30864 ft 440 kts 53°
2026-05-05 04:51 38.57909 -121.32000 31000 ft 443 kts 54°
2026-05-05 04:51 38.61700 -121.25465 31014 ft 439 kts 53°
2026-05-05 04:52 38.65660 -121.18630 31007 ft 440 kts 54°
2026-05-05 04:52 38.69334 -121.12282 31001 ft 441 kts 53°
2026-05-05 04:53 38.72980 -121.05971 31006 ft 442 kts 54°
2026-05-05 04:53 38.76633 -120.99636 30999 ft 442 kts 54°
2026-05-05 04:54 38.80279 -120.93301 31007 ft 443 kts 54°
2026-05-05 04:54 38.84007 -120.86810 30998 ft 443 kts 54°
2026-05-05 04:55 38.87676 -120.80481 31003 ft 443 kts 53°
2026-05-05 04:55 38.91632 -120.73660 30997 ft 444 kts 53°
2026-05-05 04:56 38.95789 -120.66473 30995 ft 444 kts 53°
2026-05-05 04:56 39.00015 -120.59146 30998 ft 442 kts 53°
2026-05-05 04:57 39.04208 -120.51862 30989 ft 443 kts 53°
2026-05-05 04:57 39.08147 -120.45001 30984 ft 443 kts 53°
2026-05-05 04:58 39.11836 -120.38563 30980 ft 443 kts 53°
2026-05-05 04:58 39.15503 -120.32152 30984 ft 443 kts 54°
2026-05-05 04:59 39.19154 -120.25754 30991 ft 442 kts 54°
2026-05-05 04:59 39.22858 -120.19251 30992 ft 442 kts 54°
2026-05-05 05:00 39.26531 -120.12790 30985 ft 442 kts 54°
2026-05-05 05:00 39.30174 -120.06369 30979 ft 441 kts 54°
2026-05-05 05:01 39.33787 -119.99987 30964 ft 440 kts 54°
2026-05-05 05:01 39.37439 -119.93524 30982 ft 441 kts 53°
2026-05-05 05:02 39.41031 -119.87154 30963 ft 441 kts 54°
2026-05-05 05:02 39.44629 -119.80761 30968 ft 440 kts 54°
2026-05-05 05:03 39.48220 -119.74366 30953 ft 440 kts 54°
2026-05-05 05:03 39.51973 -119.68098 30944 ft 442 kts 46°
2026-05-05 05:04 39.56903 -119.63487 30932 ft 443 kts 28°
2026-05-05 05:04 39.62573 -119.60294 30942 ft 448 kts 26°
2026-05-05 05:05 39.68307 -119.57124 30924 ft 446 kts 26°
2026-05-05 05:05 39.74002 -119.53956 30920 ft 448 kts 26°
2026-05-05 05:06 39.79759 -119.50741 30915 ft 448 kts 26°
2026-05-05 05:06 39.85516 -119.47516 30915 ft 448 kts 26°
2026-05-05 05:07 39.91267 -119.44286 30928 ft 449 kts 26°
2026-05-05 05:07 39.96976 -119.41074 30918 ft 448 kts 26°
2026-05-05 05:08 40.02717 -119.37837 30919 ft 450 kts 26°
2026-05-05 05:08 40.08443 -119.34602 30919 ft 451 kts 27°
2026-05-05 05:09 40.14218 -119.31334 30935 ft 449 kts 27°
2026-05-05 05:09 40.19913 -119.28106 30929 ft 448 kts 27°
2026-05-05 05:10 40.25632 -119.24857 30922 ft 448 kts 27°
2026-05-05 05:10 40.31355 -119.21599 30920 ft 450 kts 27°
2026-05-05 05:11 40.37032 -119.18363 30922 ft 446 kts 27°
2026-05-05 05:11 40.42753 -119.15094 30920 ft 450 kts 27°
2026-05-05 05:12 40.48450 -119.11834 30911 ft 448 kts 27°
2026-05-05 05:12 40.54177 -119.08550 30918 ft 448 kts 27°
2026-05-05 05:13 40.59860 -119.05286 30912 ft 446 kts 27°
2026-05-05 05:13 40.65593 -119.01986 30902 ft 448 kts 26°
2026-05-05 05:14 40.71278 -118.98708 30902 ft 447 kts 27°
2026-05-05 05:14 40.76966 -118.95421 30882 ft 447 kts 26°
2026-05-05 05:15 40.82659 -118.92125 30876 ft 448 kts 26°
2026-05-05 05:15 40.88365 -118.88817 30869 ft 448 kts 26°
2026-05-05 05:16 40.94031 -118.85525 30870 ft 446 kts 26°
2026-05-05 05:16 40.99724 -118.82210 30863 ft 448 kts 26°
2026-05-05 05:17 41.05413 -118.78893 30864 ft 446 kts 26°
2026-05-05 05:17 41.11034 -118.75608 30886 ft 445 kts 26°
2026-05-05 05:18 41.16729 -118.72274 30895 ft 447 kts 26°
2026-05-05 05:18 41.22400 -118.68948 30899 ft 447 kts 26°
2026-05-05 05:19 41.28079 -118.65610 30909 ft 446 kts 26°
2026-05-05 05:19 41.33735 -118.62280 30917 ft 447 kts 26°
2026-05-05 05:20 41.39418 -118.58929 30908 ft 444 kts 26°
2026-05-05 05:20 41.45043 -118.55603 30918 ft 448 kts 26°
2026-05-05 05:21 41.50741 -118.52229 30906 ft 446 kts 26°
2026-05-05 05:21 41.56407 -118.48868 30913 ft 447 kts 26°
2026-05-05 05:22 41.62076 -118.45498 30914 ft 447 kts 26°
2026-05-05 05:22 41.67765 -118.42110 30911 ft 446 kts 26°
2026-05-05 05:23 41.73434 -118.38726 30919 ft 448 kts 25°
2026-05-05 05:23 41.79104 -118.35335 30935 ft 448 kts 26°
2026-05-05 05:24 41.84786 -118.31932 30948 ft 446 kts 26°
2026-05-05 05:24 41.90434 -118.28541 30968 ft 449 kts 26°
2026-05-05 05:25 41.96127 -118.25118 30997 ft 446 kts 26°
2026-05-05 05:25 42.01774 -118.21714 31006 ft 447 kts 26°
2026-05-05 05:26 42.07456 -118.18283 30991 ft 449 kts 26°
2026-05-05 05:26 42.13144 -118.14842 30984 ft 448 kts 25°
2026-05-05 05:27 42.18817 -118.11404 30974 ft 449 kts 25°
2026-05-05 05:27 42.27332 -118.06229 30966 ft 448 kts 25°
2026-05-05 05:28 42.32998 -118.02778 30960 ft 449 kts 25°
2026-05-05 05:28 42.38676 -117.99312 30950 ft 448 kts 25°
2026-05-05 05:29 42.44355 -117.95838 30928 ft 450 kts 25°
2026-05-05 05:29 42.50043 -117.92352 30888 ft 449 kts 25°
2026-05-05 05:30 42.55724 -117.88864 30860 ft 450 kts 25°
2026-05-05 05:30 42.61526 -117.85746 30861 ft 451 kts 19°
2026-05-05 05:31 42.67502 -117.83254 30884 ft 450 kts 18°
2026-05-05 05:31 42.73521 -117.80740 30897 ft 450 kts 18°
2026-05-05 05:32 42.79460 -117.78249 30902 ft 451 kts 18°
2026-05-05 05:32 42.85458 -117.75725 30897 ft 450 kts 18°
2026-05-05 05:33 42.91411 -117.73212 30893 ft 450 kts 18°
2026-05-05 05:33 42.97376 -117.70689 30891 ft 450 kts 18°
2026-05-05 05:34 43.03368 -117.68150 30890 ft 450 kts 18°
2026-05-05 05:34 43.09341 -117.65612 30891 ft 450 kts 18°
2026-05-05 05:35 43.15306 -117.63073 30898 ft 451 kts 18°
2026-05-05 05:35 43.21265 -117.60531 30892 ft 450 kts 18°
2026-05-05 05:36 43.27248 -117.57973 30880 ft 450 kts 18°
2026-05-05 05:36 43.33208 -117.55421 30876 ft 449 kts 18°
2026-05-05 05:37 43.39151 -117.52870 30871 ft 450 kts 17°
2026-05-05 05:37 43.45100 -117.50311 30880 ft 448 kts 17°
2026-05-05 05:38 43.51062 -117.47742 30880 ft 448 kts 17°
2026-05-05 05:38 43.56988 -117.45182 30875 ft 448 kts 17°
2026-05-05 05:39 43.62915 -117.42617 30878 ft 449 kts 17°
2026-05-05 05:39 43.68853 -117.40042 30872 ft 448 kts 17°
2026-05-05 05:40 43.74795 -117.37460 30867 ft 447 kts 17°
2026-05-05 05:40 43.80708 -117.34885 30860 ft 448 kts 18°
2026-05-05 05:41 43.86655 -117.32289 30837 ft 448 kts 18°
2026-05-05 05:41 43.92611 -117.29685 30827 ft 448 kts 18°
2026-05-05 05:42 43.98520 -117.27096 30809 ft 448 kts 17°
2026-05-05 05:42 44.04445 -117.24494 30810 ft 447 kts 17°
2026-05-05 05:43 44.10366 -117.21888 30794 ft 448 kts 18°
2026-05-05 05:43 44.16320 -117.19263 30823 ft 447 kts 17°
2026-05-05 05:44 44.22244 -117.16644 30820 ft 447 kts 17°
2026-05-05 05:44 44.28146 -117.14031 30823 ft 445 kts 18°
2026-05-05 05:45 44.34067 -117.11404 30835 ft 447 kts 17°
2026-05-05 05:45 44.39953 -117.08786 30865 ft 445 kts 17°
2026-05-05 05:46 44.45849 -117.06158 30893 ft 445 kts 18°
2026-05-05 05:46 44.51840 -117.03482 30926 ft 444 kts 17°
2026-05-05 05:47 44.58264 -117.00607 30908 ft 443 kts 17°
2026-05-05 05:47 44.64108 -116.97985 30897 ft 444 kts 17°
2026-05-05 05:48 44.69990 -116.95341 30888 ft 442 kts 17°
2026-05-05 05:48 44.75796 -116.92725 30898 ft 440 kts 17°
2026-05-05 05:49 44.81647 -116.90083 30914 ft 441 kts 17°
2026-05-05 05:49 44.87477 -116.87445 30924 ft 441 kts 17°
2026-05-05 05:50 44.93309 -116.84802 30928 ft 441 kts 17°
2026-05-05 05:50 44.99149 -116.82147 30931 ft 440 kts 17°
2026-05-05 05:51 45.04986 -116.79490 30933 ft 440 kts 17°
2026-05-05 05:51 45.11260 -116.76627 30945 ft 440 kts 17°
2026-05-05 05:52 45.17975 -116.73554 30945 ft 438 kts 17°
2026-05-05 05:52 45.24642 -116.70497 30951 ft 440 kts 17°
2026-05-05 05:53 45.30525 -116.67793 30956 ft 435 kts 17°
2026-05-05 05:53 45.36539 -116.65022 30956 ft 436 kts 17°
2026-05-05 05:54 45.42584 -116.62231 30956 ft 435 kts 17°
2026-05-05 05:54 45.48327 -116.59574 30952 ft 437 kts 17°
2026-05-05 05:55 45.54082 -116.56905 30944 ft 434 kts 17°
2026-05-05 05:55 45.59821 -116.54237 30940 ft 435 kts 17°
2026-05-05 05:56 45.65555 -116.51567 30937 ft 432 kts 17°
2026-05-05 05:56 45.71275 -116.48898 30918 ft 433 kts 17°
2026-05-05 05:57 45.76997 -116.46221 30892 ft 435 kts 17°
2026-05-05 05:57 45.82703 -116.43546 30883 ft 431 kts 17°
2026-05-05 05:58 45.88404 -116.40868 30875 ft 431 kts 17°
2026-05-05 05:58 45.94096 -116.38189 30870 ft 430 kts 17°
2026-05-05 05:59 45.99759 -116.35517 30867 ft 432 kts 17°
2026-05-05 05:59 46.05463 -116.32819 30871 ft 428 kts 17°
2026-05-05 06:00 46.11115 -116.30141 30876 ft 428 kts 17°
2026-05-05 06:00 46.16758 -116.27462 30876 ft 429 kts 17°
2026-05-05 06:01 46.22429 -116.24763 30883 ft 426 kts 17°
2026-05-05 06:01 46.28018 -116.22097 30882 ft 428 kts 17°
2026-05-05 06:02 46.33667 -116.19397 30879 ft 426 kts 17°
2026-05-05 06:02 46.39320 -116.16690 30896 ft 426 kts 17°
2026-05-05 06:03 46.44888 -116.14017 30908 ft 424 kts 17°
2026-05-05 06:03 46.50507 -116.11314 30913 ft 424 kts 17°
2026-05-05 06:04 46.56094 -116.08620 30905 ft 425 kts 17°
2026-05-05 06:04 46.62017 -116.05758 30915 ft 421 kts 17°
2026-05-05 06:05 46.67641 -116.03034 30912 ft 424 kts 17°
2026-05-05 06:05 46.73211 -116.00330 30937 ft 419 kts 16°
2026-05-05 06:06 46.78758 -115.97633 30930 ft 422 kts 17°
2026-05-05 06:06 46.84288 -115.94936 30942 ft 418 kts 16°
2026-05-05 06:07 46.89968 -115.92162 30934 ft 420 kts 17°
2026-05-05 06:07 46.95566 -115.89420 30940 ft 418 kts 16°
2026-05-05 06:08 47.01076 -115.86716 30944 ft 418 kts 16°
2026-05-05 06:08 47.07059 -115.83774 30945 ft 415 kts 16°
2026-05-05 06:09 47.13092 -115.80800 30976 ft 417 kts 16°
2026-05-05 06:09 47.18946 -115.77907 30969 ft 415 kts 16°
2026-05-05 06:10 47.24662 -115.75076 30978 ft 416 kts 16°
2026-05-05 06:10 47.30363 -115.72245 30975 ft 414 kts 15°
2026-05-05 06:11 47.36261 -115.69312 30981 ft 416 kts 15°
2026-05-05 06:11 47.41774 -115.66561 30988 ft 415 kts 15°
2026-05-05 06:12 47.46997 -115.62649 30995 ft 423 kts 31°
2026-05-05 06:12 47.51645 -115.56853 30993 ft 428 kts 34°
2026-05-05 06:13 47.56558 -115.50534 30996 ft 428 kts 34°
2026-05-05 06:13 47.61615 -115.43993 30995 ft 425 kts 34°
2026-05-05 06:14 47.66286 -115.37929 30997 ft 429 kts 34°
2026-05-05 06:14 47.70750 -115.32111 31002 ft 426 kts 35°
2026-05-05 06:15 47.75324 -115.26137 31010 ft 428 kts 34°
2026-05-05 06:15 47.80434 -115.19443 31008 ft 427 kts 34°
2026-05-05 06:16 47.85309 -115.13040 31010 ft 427 kts 34°
2026-05-05 06:16 47.90292 -115.06477 31018 ft 426 kts 35°
2026-05-05 06:17 47.95099 -115.00128 31030 ft 425 kts 34°
2026-05-05 06:17 47.99588 -114.94189 31009 ft 428 kts 35°
2026-05-05 06:18 48.04014 -114.88316 31021 ft 428 kts 34°
2026-05-05 06:18 48.08458 -114.82403 31021 ft 426 kts 34°
2026-05-05 06:19 48.13072 -114.76251 31041 ft 428 kts 34°
2026-05-05 06:19 48.18065 -114.69575 31050 ft 426 kts 34°
2026-05-05 06:20 48.22893 -114.63103 31068 ft 427 kts 34°
2026-05-05 06:20 48.27928 -114.56335 31066 ft 427 kts 34°
2026-05-05 06:21 48.32601 -114.50037 31084 ft 427 kts 34°
2026-05-05 06:21 48.37014 -114.44075 31084 ft 427 kts 34°
2026-05-05 06:22 48.41930 -114.37413 31083 ft 423 kts 34°
2026-05-05 06:22 48.46620 -114.31048 31078 ft 428 kts 35°
2026-05-05 06:23 48.51664 -114.24177 31089 ft 426 kts 35°
2026-05-05 06:23 48.56576 -114.17467 31107 ft 425 kts 34°
2026-05-05 06:24 48.61109 -114.11261 31100 ft 424 kts 34°
2026-05-05 06:24 48.66062 -114.04464 31105 ft 426 kts 34°
2026-05-05 06:25 48.70520 -113.98327 31073 ft 429 kts 34°
2026-05-05 06:25 48.74858 -113.92336 31075 ft 421 kts 34°
2026-05-05 06:26 48.79210 -113.86320 31087 ft 425 kts 34°
2026-05-05 06:26 48.83586 -113.80250 31085 ft 423 kts 34°
2026-05-05 06:27 48.90694 -113.70365 31113 ft 427 kts 34°
2026-05-05 06:28 48.95655 -113.63436 31125 ft 424 kts 33°
2026-05-05 06:28 49.00030 -113.57313 31120 ft 424 kts 34°
2026-05-05 06:29 49.04331 -113.51274 31121 ft 420 kts 33°
2026-05-05 06:29 49.08633 -113.45229 31125 ft 428 kts 34°
2026-05-05 06:30 49.12968 -113.39108 31150 ft 423 kts 33°
2026-05-05 06:30 49.17268 -113.33030 31168 ft 424 kts 34°
2026-05-05 06:31 49.21598 -113.26892 31150 ft 424 kts 34°
2026-05-05 06:31 49.25878 -113.20810 31150 ft 423 kts 34°
2026-05-05 06:32 49.30171 -113.14695 31132 ft 423 kts 34°
2026-05-05 06:32 49.34476 -113.08548 31133 ft 424 kts 34°
2026-05-05 06:33 49.38759 -113.02415 31134 ft 423 kts 33°
2026-05-05 06:33 49.43071 -112.96228 31126 ft 426 kts 33°
2026-05-05 06:34 49.47346 -112.90072 31133 ft 420 kts 33°
2026-05-05 06:34 49.51611 -112.83924 31137 ft 423 kts 34°
2026-05-05 06:35 49.55845 -112.77795 31124 ft 418 kts 33°
2026-05-05 06:35 49.60122 -112.71600 31128 ft 422 kts 33°
2026-05-05 06:36 49.64422 -112.65663 31127 ft 410 kts 28°
2026-05-05 06:36 49.69076 -112.60481 31127 ft 414 kts 27°
2026-05-05 06:37 49.73714 -112.55318 31122 ft 412 kts 27°
2026-05-05 06:37 49.78332 -112.50163 31127 ft 413 kts 27°
2026-05-05 06:38 49.82957 -112.44981 31117 ft 411 kts 27°
2026-05-05 06:38 49.87581 -112.39791 31113 ft 415 kts 27°
2026-05-05 06:39 49.92191 -112.34596 31114 ft 411 kts 27°
2026-05-05 06:39 49.96831 -112.29356 31105 ft 411 kts 27°
2026-05-05 06:40 50.01434 -112.24147 31097 ft 411 kts 27°
2026-05-05 06:40 50.06035 -112.18928 31106 ft 413 kts 27°
2026-05-05 06:41 50.10670 -112.13656 31109 ft 412 kts 27°
2026-05-05 06:41 50.15275 -112.08406 31121 ft 412 kts 27°
2026-05-05 06:42 50.19918 -112.03101 31128 ft 416 kts 27°
2026-05-05 06:42 50.24543 -111.97800 31134 ft 415 kts 27°
2026-05-05 06:43 50.29189 -111.92464 31139 ft 414 kts 27°
2026-05-05 06:43 50.33803 -111.87154 31125 ft 418 kts 27°
2026-05-05 06:44 50.38492 -111.81738 31121 ft 415 kts 27°
2026-05-05 06:44 50.43128 -111.76375 31127 ft 417 kts 28°
2026-05-05 06:45 50.47789 -111.70968 31125 ft 419 kts 28°
2026-05-05 06:45 50.52461 -111.65535 31128 ft 420 kts 28°
2026-05-05 06:46 50.57148 -111.60069 31131 ft 420 kts 28°
2026-05-05 06:46 50.61852 -111.54574 31129 ft 426 kts 28°
2026-05-05 06:47 50.66584 -111.49025 31130 ft 425 kts 29°
2026-05-05 06:47 50.71283 -111.43504 31128 ft 425 kts 29°
2026-05-05 06:48 50.76025 -111.37919 31132 ft 428 kts 29°
2026-05-05 06:48 50.80792 -111.32288 31123 ft 426 kts 30°
2026-05-05 06:49 50.85525 -111.26685 31121 ft 430 kts 30°
2026-05-05 06:49 50.90314 -111.21000 31121 ft 431 kts 30°
2026-05-05 06:50 50.95079 -111.15327 31119 ft 434 kts 31°
2026-05-05 06:50 50.99879 -111.09598 31111 ft 433 kts 31°
2026-05-05 06:51 51.04696 -111.03835 31099 ft 435 kts 31°
2026-05-05 06:51 51.09546 -110.98016 31099 ft 438 kts 31°
2026-05-05 06:52 51.14387 -110.92191 31121 ft 438 kts 31°
2026-05-05 06:52 51.19217 -110.86364 31115 ft 438 kts 31°
2026-05-05 06:53 51.24034 -110.80536 31120 ft 438 kts 31°
2026-05-05 06:53 51.28880 -110.74661 31108 ft 440 kts 31°
2026-05-05 06:54 51.33765 -110.68719 31118 ft 442 kts 32°
2026-05-05 06:54 51.38646 -110.62766 31116 ft 443 kts 32°
2026-05-05 06:55 51.43503 -110.56827 31118 ft 444 kts 32°
2026-05-05 06:55 51.48371 -110.50857 31117 ft 442 kts 32°
2026-05-05 06:56 51.53268 -110.44836 31122 ft 445 kts 32°
2026-05-05 06:56 51.58149 -110.38818 31123 ft 445 kts 32°
2026-05-05 06:57 51.63059 -110.32745 31107 ft 447 kts 33°
2026-05-05 06:57 51.67971 -110.26656 31126 ft 447 kts 33°
2026-05-05 06:58 51.72908 -110.20517 31118 ft 449 kts 33°
2026-05-05 06:58 51.77838 -110.14368 31112 ft 448 kts 33°
2026-05-05 06:59 51.82741 -110.08237 31124 ft 449 kts 33°
2026-05-05 06:59 51.87666 -110.02062 31100 ft 449 kts 33°
2026-05-05 07:00 51.92400 -109.95441 31102 ft 453 kts 38°
2026-05-05 07:00 51.97065 -109.88559 31101 ft 454 kts 38°
2026-05-05 07:01 52.01720 -109.81669 31088 ft 454 kts 38°
2026-05-05 07:01 52.06361 -109.74777 31095 ft 453 kts 38°
2026-05-05 07:02 52.10978 -109.67903 31118 ft 454 kts 38°
2026-05-05 07:02 52.13219 -109.64560 31111 ft 454 kts 38°